StationID,Date,MaxTemp,MinTemp,Precipitation,Snowfall,SnowDepth
"CA002202560","1994-09-07",49.46,43.70,,,
"CA002202560","1994-09-08",48.02,43.34,,,
"CA002202560","1994-09-09",50.72,45.50,,,
"CA002202560","1994-09-10",49.28,45.14,,,
"CA002202560","1994-09-11",47.66,42.44,,,
"CA002202560","1994-09-12",49.64,43.34,,,
"CA002202560","1994-09-13",51.80,47.30,,,
"CA002202560","1994-09-14",58.82,47.66,,,
"CA002202560","1994-09-15",54.68,48.02,,,
"CA002202560","1994-09-16",55.22,51.62,,,
"CA002202560","1994-09-17",57.92,51.26,,,
"CA002202560","1994-09-23",50.90,40.64,,,
"CA002202560","1994-09-24",51.80,45.86,,,
"CA002202560","1994-09-25",56.84,49.10,,,
"CA002202560","1994-09-29",43.34,36.68,,,
"CA002202560","1994-09-30",45.68,40.28,,,
"CA002202560","1994-10-02",46.22,39.92,,,
"CA002202560","1994-10-04",50.54,43.34,,,
"CA002202560","1994-10-05",49.10,37.40,,,
"CA002202560","1994-10-06",41.54,33.08,,,
"CA002202560","1994-10-08",43.70,,,,
"CA002202560","1994-10-09",43.16,39.74,,,
"CA002202560","1994-10-11",43.16,35.78,,,
"CA002202560","1994-10-12",46.58,38.84,,,
"CA002202560","1994-10-15",38.84,33.08,,,
"CA002202560","1994-10-17",49.64,,,,
"CA002202560","1994-10-19",40.10,33.44,,,
"CA002202560","1994-10-20",44.78,37.04,,,
"CA002202560","1994-10-21",37.40,27.68,,,
"CA002202560","1994-10-22",34.70,28.04,,,
"CA002202560","1994-10-24",41.18,33.80,,,
"CA002202560","1994-10-25",43.34,39.92,,,
"CA002202560","1994-10-26",43.16,40.46,,,
"CA002202560","1994-10-27",40.64,35.06,,,
"CA002202560","1994-10-28",35.78,30.74,,,
"CA002202560","1994-10-29",31.10,27.68,,,
"CA002202560","1994-10-30",32.90,27.50,,,
"CA002202560","1994-11-01",27.68,25.16,,,
"CA002202560","1994-11-02",28.40,23.90,,,
"CA002202560","1994-11-03",28.76,23.18,,,
"CA002202560","1994-11-04",43.16,28.22,,,
"CA002202560","1994-11-05",31.82,17.24,,,
"CA002202560","1994-11-06",22.82,11.84,,,
"CA002202560","1994-11-07",27.32,22.46,,,
"CA002202560","1994-11-08",28.22,25.70,,,
"CA002202560","1994-11-09",34.88,27.14,,,
"CA002202560","1994-11-10",35.60,21.38,,,
"CA002202560","1994-11-11",40.46,25.16,,,
"CA002202560","1994-11-12",39.74,24.62,,,
"CA002202560","1994-11-13",32.36,26.06,,,
"CA002202560","1994-11-14",31.28,12.92,,,
"CA002202560","1994-11-17",25.70,18.86,,,
"CA002202560","1994-11-18",28.22,16.88,,,
"CA002202560","1994-11-19",25.16,9.86,,,
"CA002202560","1994-11-20",10.76,3.74,,,
"CA002202560","1994-11-21",9.50,1.58,,,
"CA002202560","1994-11-22",13.28,8.24,,,
"CA002202560","1994-11-23",14.36,0.68,,,
"CA002202560","1994-11-24",2.30,-3.64,,,
"CA002202560","1994-11-25",4.82,-3.10,,,
"CA002202560","1994-11-26",11.84,3.74,,,
"CA002202560","1994-11-27",12.56,9.50,,,
"CA002202560","1994-11-28",12.74,10.22,,,
"CA002202560","1994-11-29",14.90,2.48,,,
"CA002202560","1994-11-30",11.84,-6.70,,,
"CA002202560","1994-12-01",12.56,4.46,,,
"CA002202560","1994-12-02",8.42,-2.20,,,
"CA002202560","1994-12-03",5.18,-7.06,,,
"CA002202560","1994-12-04",12.56,-9.76,,,
"CA002202560","1994-12-05",12.92,7.88,,,
"CA002202560","1994-12-11",-7.24,-16.06,,,
"CA002202560","1994-12-12",0.14,-9.94,,,
"CA002202560","1994-12-13",8.60,0.14,,,
"CA002202560","1994-12-14",13.64,8.60,,,
"CA002202560","1994-12-15",15.62,-0.22,,,
"CA002202560","1994-12-16",-0.22,-3.64,,,
"CA002202560","1994-12-17",-0.40,-9.58,,,
"CA002202560","1994-12-18",6.08,-9.04,,,
"CA002202560","1994-12-20",18.68,9.32,,,
"CA002202560","1994-12-22",23.90,13.28,,,
"CA002202560","1994-12-23",19.58,-0.58,,,
"CA002202560","1994-12-24",16.34,-2.20,,,
"CA002202560","1994-12-25",21.56,4.82,,,
"CA002202560","1994-12-26",4.82,-5.44,,,
"CA002202560","1994-12-27",-5.44,-11.92,,,
"CA002202560","1994-12-28",-5.62,-14.08,,,
"CA002202560","1994-12-29",-1.30,-7.96,,,
"CA002202560","1994-12-30",11.84,-9.22,,,
"CA002202560","1994-12-31",16.16,8.24,,,
"CA002202560","1995-01-01",13.10,-10.12,,,
"CA002202560","1995-01-02",-9.04,-13.18,,,
"CA002202560","1995-01-03",0.32,-12.28,,,
"CA002202560","1995-01-05",9.68,-13.72,,,
"CA002202560","1995-01-06",-8.68,-18.94,,,
"CA002202560","1995-01-07",-13.54,-25.24,,,
"CA002202560","1995-01-08",-22.54,-26.50,,,
"CA002202560","1995-01-09",-13.00,-23.62,,,
"CA002202560","1995-01-10",-11.56,-18.94,,,
"CA002202560","1995-01-11",-0.94,-11.74,,,
"CA002202560","1995-01-12",0.86,-8.68,,,
"CA002202560","1995-01-13",-8.68,-19.30,,,
"CA002202560","1995-01-14",-9.22,-13.54,,,
"CA002202560","1995-01-15",1.40,-11.02,,,
"CA002202560","1995-01-16",8.60,1.22,,,
"CA002202560","1995-01-17",14.90,3.74,,,
"CA002202560","1995-01-18",14.90,4.28,,,
"CA002202560","1995-01-19",12.56,10.94,,,
"CA002202560","1995-01-20",13.46,4.10,,,
"CA002202560","1995-01-21",7.34,-0.76,,,
"CA002202560","1995-01-22",14.00,2.66,,,
"CA002202560","1995-01-23",5.54,-1.84,,,
"CA002202560","1995-01-24",7.34,1.76,,,
"CA002202560","1995-01-25",8.24,3.38,,,
"CA002202560","1995-01-26",10.94,2.84,,,
"CA002202560","1995-01-27",8.06,1.94,,,
"CA002202560","1995-01-28",10.58,-0.76,,,
"CA002202560","1995-01-29",17.42,9.32,,,
"CA002202560","1995-01-30",12.02,7.88,,,
"CA002202560","1995-01-31",8.60,6.26,,,
"CA002202560","1995-02-22",-2.92,-17.14,,,
"CA002202560","1995-02-23",-16.06,-27.58,,,
"CA002202560","1995-02-24",-9.58,-24.88,,,
"CA002202560","1995-02-25",-1.30,-13.00,,,
"CA002202560","1995-02-26",-13.00,-20.56,,,
"CA002202560","1995-02-27",-10.48,-22.72,,,
"CA002202560","1995-02-28",0.50,-24.88,,,
"CA002202560","1995-03-02",-9.40,-29.20,,,
"CA002202560","1995-03-03",-16.24,-34.42,,,
"CA002202560","1995-03-04",-17.32,-29.92,,,
"CA002202560","1995-03-05",-12.64,-24.52,,,
"CA002202560","1995-03-06",-5.62,-27.04,,,
"CA002202560","1995-03-07",-7.78,-27.58,,,
"CA002202560","1995-03-08",-1.66,-21.10,,,
"CA002202560","1995-03-09",2.84,-19.48,,,
"CA002202560","1995-03-10",20.84,-1.12,,,
"CA002202560","1995-03-11",10.22,-12.64,,,
"CA002202560","1995-03-12",12.20,-22.00,,,
"CA002202560","1995-03-13",0.32,-24.88,,,
"CA002202560","1995-03-14",23.90,0.32,,,
"CA002202560","1995-03-15",25.52,-2.20,,,
"CA002202560","1995-03-16",12.20,-6.88,,,
"CA002202560","1995-03-17",10.40,-0.76,,,
"CA002202560","1995-03-18",29.66,9.50,,,
"CA002202560","1995-03-19",30.74,18.32,,,
"CA002202560","1995-03-20",30.38,17.42,,,
"CA002202560","1995-03-21",37.40,19.22,,,
"CA002202560","1995-03-22",41.90,2.48,,,
"CA002202560","1995-03-23",2.48,-10.66,,,
"CA002202560","1995-03-24",4.28,,,,
"CA002202560","1995-03-25",-1.30,-17.14,,,
"CA002202560","1995-03-26",1.40,-20.92,,,
"CA002202560","1995-03-27",14.36,-18.58,,,
"CA002202560","1995-03-28",17.96,-21.10,,,
"CA002202560","1995-03-29",11.48,-9.76,,,
"CA002202560","1995-03-30",25.88,-8.14,,,
"CA002202560","1995-03-31",19.76,-1.84,,,
"CA002202560","1995-04-01",23.00,-9.22,,,
"CA002202560","1995-04-02",-0.94,-23.08,,,
"CA002202560","1995-04-03",1.40,-27.04,,,
"CA002202560","1995-04-04",2.12,-21.64,,,
"CA002202560","1995-04-05",2.30,-13.00,,,
"CA002202560","1995-04-06",9.14,-10.84,,,
"CA002202560","1995-04-07",19.76,-2.20,,,
"CA002202560","1995-04-08",21.38,-0.04,,,
"CA002202560","1995-04-09",31.64,3.92,,,
"CA002202560","1995-04-10",37.76,17.60,,,
"CA002202560","1995-04-11",39.92,11.48,,,
"CA002202560","1995-04-12",35.96,4.10,,,
"CA002202560","1995-04-13",23.36,4.28,,,
"CA002202560","1995-04-14",21.74,-1.66,,,
"CA002202560","1995-04-15",29.30,15.08,,,
"CA002202560","1995-04-16",31.46,23.18,,,
"CA002202560","1995-04-17",31.10,21.74,,,
"CA002202560","1995-04-18",28.04,17.42,,,
"CA002202560","1995-04-19",25.70,10.58,,,
"CA002202560","1995-04-20",30.02,10.22,,,
"CA002202560","1995-04-21",41.90,17.78,,,
"CA002202560","1995-04-22",33.80,15.26,,,
"CA002202560","1995-04-23",36.14,11.48,,,
"CA002202560","1995-04-24",97.16,12.74,,,
"CA002202560","1995-04-25",81.86,7.34,,,
"CA002202560","1995-04-26",29.66,,,,
"CA002202560","1995-04-27",41.90,12.20,,,
"CA002202560","1995-04-29",41.90,23.36,,,
"CA002202560","1995-04-30",38.12,23.54,,,
"CA002202560","1995-05-01",44.96,26.96,,,
"CA002202560","1995-05-02",32.54,18.86,,,
"CA002202560","1995-05-03",31.64,16.52,,,
"CA002202560","1995-05-04",38.84,20.30,,,
"CA002202560","1995-05-05",45.68,27.32,,,
"CA002202560","1995-05-06",50.00,25.70,,,
"CA002202560","1995-05-07",49.46,25.88,,,
"CA002202560","1995-05-08",43.88,31.64,,,
"CA002202560","1995-05-09",36.50,26.06,,,
"CA002202560","1995-05-10",40.28,25.70,,,
"CA002202560","1995-05-11",35.42,25.52,,,
"CA002202560","1995-05-12",41.54,21.56,,,
"CA002202560","1995-05-13",32.72,22.64,,,
"CA002202560","1995-05-14",34.88,18.68,,,
"CA002202560","1995-05-15",46.58,25.52,,,
"CA002202560","1995-05-16",45.68,33.26,,,
"CA002202560","1995-05-17",37.04,28.22,,,
"CA002202560","1995-05-18",39.02,24.44,,,
"CA002202560","1995-05-19",37.58,22.82,,,
"CA002202560","1995-05-20",40.46,22.28,,,
"CA002202560","1995-05-21",37.22,24.08,,,
"CA002202560","1995-05-22",46.58,30.56,,,
"CA002202560","1995-05-23",40.10,30.02,,,
"CA002202560","1995-05-25",39.20,22.82,,,
"CA002202560","1995-05-26",50.72,34.52,,,
"CA002202560","1995-05-27",44.96,35.06,,,
"CA002202560","1995-05-28",43.16,34.88,,,
"CA002202560","1995-05-29",49.64,34.70,,,
"CA002202560","1995-05-30",49.10,31.64,,,
"CA002202560","1995-05-31",51.44,35.60,,,
"CA002202560","1995-06-01",50.36,34.52,,,
"CA002202560","1995-06-02",54.68,35.60,,,
"CA002202560","1995-06-03",55.04,37.40,,,
"CA002202560","1995-06-05",46.58,36.50,,,
"CA002202560","1995-06-08",58.82,38.12,,,
"CA002202560","1995-06-09",64.58,38.30,,,
"CA002202560","1995-06-11",71.60,41.36,,,
"CA002202560","1995-06-12",64.58,42.44,,,
"CA002202560","1995-06-13",55.40,39.74,,,
"CA002202560","1995-06-14",58.64,39.92,,,
"CA002202560","1995-06-15",48.20,38.66,,,
"CA002202560","1995-06-19",48.92,41.18,,,
"CA002202560","1995-06-20",59.54,43.34,,,
"CA002202560","1995-06-21",51.62,40.46,,,
"CA002202560","1995-06-22",55.58,-18.22,,,
"CA002202560","1995-06-23",58.46,38.84,,,
"CA002202560","1995-07-02",49.64,41.72,,,
"CA002202560","1995-07-03",52.16,41.00,,,
"CA002202560","1995-07-06",57.56,43.88,,,
"CA002202560","1995-07-07",67.82,42.98,,,
"CA002202560","1995-07-08",60.08,42.08,,,
"CA002202560","1995-07-09",56.66,41.72,,,
"CA002202560","1995-07-10",54.68,41.54,,,
"CA002202560","1995-07-11",55.76,43.70,,,
"CA002202560","1995-07-12",56.12,42.44,,,
"CA002202560","1995-07-13",70.52,43.70,,,
"CA002202560","1995-07-14",58.10,,,,
"CA002202560","1995-07-15",58.28,45.32,,,
"CA002202560","1995-07-16",57.74,47.66,,,
"CA002202560","1995-07-17",62.42,48.92,,,
"CA002202560","1995-07-19",70.16,48.38,,,
"CA002202560","1995-07-20",75.20,52.34,,,
"CA002202560","1995-07-21",65.48,54.68,,,
"CA002202560","1995-07-22",56.84,50.36,,,
"CA002202560","1995-07-23",59.18,49.10,,,
"CA002202560","1995-07-24",56.66,50.18,,,
"CA002202560","1995-07-25",61.88,47.84,,,
"CA002202560","1995-07-26",66.38,49.64,,,
"CA002202560","1995-07-27",59.36,49.46,,,
"CA002202560","1995-07-28",56.48,47.66,,,
"CA002202560","1995-07-29",53.24,49.10,,,
"CA002202560","1995-07-30",57.56,48.56,,,
"CA002202560","1995-07-31",56.30,50.00,,,
"CA002202560","1995-08-01",59.00,50.54,,,
"CA002202560","1995-08-02",60.26,50.90,,,
"CA002202560","1995-08-03",62.60,53.42,,,
"CA002202560","1995-08-04",59.72,55.22,,,
"CA002202560","1995-08-05",57.74,53.96,,,
"CA002202560","1995-08-06",55.40,51.26,,,
"CA002202560","1995-08-07",55.94,50.90,,,
"CA002202560","1995-08-08",65.66,49.46,,,
"CA002202560","1995-08-09",65.48,48.92,,,
"CA002202560","1995-08-10",59.18,50.54,,,
"CA002202560","1995-08-11",60.98,52.52,,,
"CA002202560","1995-08-12",63.68,54.86,,,
"CA002202560","1995-08-13",63.86,56.30,,,
"CA002202560","1995-08-14",64.40,57.20,,,
"CA002202560","1995-08-15",60.08,56.12,,,
"CA002202560","1995-08-16",59.72,54.14,,,
"CA002202560","1995-08-17",61.52,56.12,,,
"CA002202560","1995-08-18",62.42,55.58,,,
"CA002202560","1995-08-19",56.66,51.98,,,
"CA002202560","1995-08-20",52.34,48.38,,,
"CA002202560","1995-08-21",55.76,49.82,,,
"CA002202560","1995-08-22",59.00,51.80,,,
"CA002202560","1995-08-23",60.44,53.42,,,
"CA002202560","1995-08-24",62.96,54.14,,,
"CA002202560","1995-08-25",59.54,52.16,,,
"CA002202560","1995-08-26",56.66,50.72,,,
"CA002202560","1995-08-27",53.96,48.74,,,
"CA002202560","1995-08-28",54.14,45.68,,,
"CA002202560","1995-08-29",53.42,44.78,,,
"CA002202560","1995-08-30",56.30,50.00,,,
"CA002202560","1995-08-31",55.76,49.10,,,
"CA002202560","1995-09-01",53.78,42.98,,,
"CA002202560","1995-09-02",57.92,53.06,,,
"CA002202560","1995-09-03",56.66,47.48,,,
"CA002202560","1995-09-04",57.92,50.54,,,
"CA002202560","1995-09-05",51.26,43.34,,,
"CA002202560","1995-09-06",55.22,44.60,,,
"CA002202560","1995-09-07",51.44,43.16,,,
"CA002202560","1995-09-08",49.28,45.68,,,
"CA002202560","1995-09-09",51.44,46.76,,,
"CA002202560","1995-09-10",55.04,49.10,,,
"CA002202560","1995-09-11",57.20,44.42,,,
"CA002202560","1995-09-12",46.40,38.84,,,
"CA002202560","1995-09-13",53.60,41.72,,,
"CA002202560","1995-09-15",53.78,44.06,,,
"CA002202560","1995-09-16",50.18,40.46,,,
"CA002202560","1995-09-17",42.08,37.94,,,
"CA002202560","1995-09-18",44.24,35.60,,,
"CA002202560","1995-09-19",39.38,35.78,,,
"CA002202560","1995-09-20",48.56,38.30,,,
"CA002202560","1995-09-21",53.60,46.40,,,
"CA002202560","1995-09-22",50.54,44.78,,,
"CA002202560","1995-09-23",55.76,47.12,,,
"CA002202560","1995-09-24",58.28,47.48,,,
"CA002202560","1995-09-25",55.76,48.92,,,
"CA002202560","1995-09-26",51.80,45.50,,,
"CA002202560","1995-09-27",48.74,44.78,,,
"CA002202560","1995-09-28",49.46,42.08,,,
"CA002202560","1995-09-29",42.08,35.60,,,
"CA002202560","1995-09-30",39.56,34.34,,,
"CA002202560","1995-10-01",46.04,39.38,,,
"CA002202560","1995-10-02",47.48,41.18,,,
"CA002202560","1995-10-03",46.22,41.72,,,
"CA002202560","1995-10-04",42.98,31.46,,,
"CA002202560","1995-10-05",40.28,31.46,,,
"CA002202560","1995-10-06",45.86,40.28,,,
"CA002202560","1995-10-07",49.28,39.20,,,
"CA002202560","1995-10-08",48.20,38.30,,,
"CA002202560","1995-10-09",54.50,40.46,,,
"CA002202560","1995-10-10",42.08,37.40,,,
"CA002202560","1995-10-11",38.66,35.06,,,
"CA002202560","1995-10-12",43.52,37.58,,,
"CA002202560","1995-10-13",48.92,39.38,,,
"CA002202560","1995-10-14",50.00,41.54,,,
"CA002202560","1995-10-15",41.72,34.52,,,
"CA002202560","1995-10-16",34.52,29.48,,,
"CA002202560","1995-10-17",31.28,27.32,,,
"CA002202560","1995-10-18",32.00,28.76,,,
"CA002202560","1995-10-19",36.86,,,,
"CA002202560","1995-10-20",42.80,35.06,,,
"CA002202560","1995-10-21",40.46,29.66,,,
"CA002202560","1995-10-22",30.02,24.44,,,
"CA002202560","1995-10-23",28.40,24.44,,,
"CA002202560","1995-10-24",28.58,24.08,,,
"CA002202560","1995-10-25",31.10,24.98,,,
"CA002202560","1995-10-26",31.46,19.94,,,
"CA002202560","1995-10-27",26.78,22.10,,,
"CA002202560","1995-10-28",33.98,26.60,,,
"CA002202560","1995-10-29",28.94,22.10,,,
"CA002202560","1995-10-30",24.08,12.56,,,
"CA002202560","1995-10-31",18.14,8.24,,,
"CA002202560","1995-11-01",24.98,16.70,,,
"CA002202560","1995-11-02",29.84,22.10,,,
"CA002202560","1995-11-03",32.54,26.96,,,
"CA002202560","1995-11-04",33.08,23.54,,,
"CA002202560","1995-11-05",24.44,15.44,,,
"CA002202560","1995-11-06",19.94,14.72,,,
"CA002202560","1995-11-07",18.50,12.56,,,
"CA002202560","1995-11-08",18.50,14.36,,,
"CA002202560","1995-11-09",19.94,9.32,,,
"CA002202560","1995-11-10",12.56,8.96,,,
"CA002202560","1995-11-11",17.60,8.78,,,
"CA002202560","1995-11-12",17.42,,,,
"CA002202560","1995-11-14",21.02,10.04,,,
"CA002202560","1995-11-15",19.58,6.80,,,
"CA002202560","1995-11-16",19.58,16.34,,,
"CA002202560","1995-11-17",30.02,16.16,,,
"CA002202560","1995-11-18",36.68,25.16,,,
"CA002202560","1995-11-19",25.70,6.80,,,
"CA002202560","1995-11-20",17.06,5.90,,,
"CA002202560","1995-11-21",16.52,-2.56,,,
"CA002202560","1995-11-22",2.30,-4.18,,,
"CA002202560","1995-11-23",-3.82,-8.86,,,
"CA002202560","1995-11-24",-0.04,-7.78,,,
"CA002202560","1995-11-25",2.84,-3.82,,,
"CA002202560","1995-11-26",10.94,1.94,,,
"CA002202560","1995-11-27",4.10,-7.60,,,
"CA002202560","1995-11-28",-0.04,-7.42,,,
"CA002202560","1995-11-29",1.76,-2.38,,,
"CA002202560","1995-11-30",3.74,-0.94,,,
"CA002202560","1995-12-01",1.40,-8.68,,,
"CA002202560","1995-12-02",0.14,-5.26,,,
"CA002202560","1995-12-03",1.76,-12.82,,,
"CA002202560","1995-12-04",-10.66,-18.76,,,
"CA002202560","1995-12-05",-18.58,-23.26,,,
"CA002202560","1995-12-06",-15.16,-24.88,,,
"CA002202560","1995-12-07",-14.98,-22.54,,,
"CA002202560","1995-12-08",-7.60,-21.28,,,
"CA002202560","1995-12-09",-13.36,-22.72,,,
"CA002202560","1995-12-10",-18.40,-24.16,,,
"CA002202560","1995-12-11",-18.22,-27.04,,,
"CA002202560","1995-12-12",-5.08,-19.30,,,
"CA002202560","1995-12-13",-1.48,-6.70,,,
"CA002202560","1995-12-14",-6.70,-14.98,,,
"CA002202560","1995-12-15",-5.80,-12.46,,,
"CA002202560","1995-12-16",-8.50,-11.56,,,
"CA002202560","1995-12-17",-5.62,-13.36,,,
"CA002202560","1995-12-18",3.20,-10.84,,,
"CA002202560","1995-12-19",0.68,-13.00,,,
"CA002202560","1995-12-20",21.20,0.68,,,
"CA002202560","1995-12-21",2.66,-3.46,,,
"CA002202560","1995-12-22",3.56,-1.30,,,
"CA002202560","1995-12-23",-1.30,-6.34,,,
"CA002202560","1995-12-24",15.62,-3.46,,,
"CA002202560","1995-12-25",19.40,3.92,,,
"CA002202560","1995-12-26",8.06,-4.72,,,
"CA002202560","1995-12-27",9.50,3.56,,,
"CA002202560","1995-12-28",10.22,5.18,,,
"CA002202560","1995-12-29",8.78,7.16,,,
"CA002202560","1995-12-30",10.58,6.26,,,
"CA002202560","1995-12-31",10.94,0.68,,,
"CA002202560","1996-01-02",12.02,1.22,,,
"CA002202560","1996-01-03",3.38,-6.34,,,
"CA002202560","1996-01-04",3.92,-4.54,,,
"CA002202560","1996-01-05",-4.36,-11.56,,,
"CA002202560","1996-01-06",-3.46,-15.88,,,
"CA002202560","1996-01-07",-0.94,-12.28,,,
"CA002202560","1996-01-08",-0.40,-7.78,,,
"CA002202560","1996-01-09",-7.06,,,,
"CA002202560","1996-01-10",-8.32,-14.98,,,
"CA002202560","1996-01-11",-14.80,-21.64,,,
"CA002202560","1996-01-12",-21.64,-29.56,,,
"CA002202560","1996-01-13",-20.38,-32.26,,,
"CA002202560","1996-01-14",-17.14,-23.26,,,
"CA002202560","1996-01-15",-12.64,-20.92,,,
"CA002202560","1996-01-16",-20.20,-33.52,,,
"CA002202560","1996-01-17",-31.18,-34.96,,,
"CA002202560","1996-01-18",-27.22,-31.54,,,
"CA002202560","1996-01-19",-25.06,-34.78,,,
"CA002202560","1996-01-20",-4.90,-25.06,,,
"CA002202560","1996-01-21",-6.16,-20.56,,,
"CA002202560","1996-01-22",-13.00,-29.56,,,
"CA002202560","1996-01-23",-10.30,-27.94,,,
"CA002202560","1996-01-24",-10.12,-23.62,,,
"CA002202560","1996-01-25",-9.40,-24.70,,,
"CA002202560","1996-01-26",-23.62,-33.16,,,
"CA002202560","1996-01-27",-17.68,-31.72,,,
"CA002202560","1996-01-28",-18.04,-29.38,,,
"CA002202560","1996-01-29",-27.22,-35.14,,,
"CA002202560","1996-01-30",-27.22,-34.96,,,
"CA002202560","1996-01-31",-32.08,-37.30,,,
"CA002202560","1996-02-01",-31.18,-38.38,,,
"CA002202560","1996-02-02",-20.74,-33.52,,,
"CA002202560","1996-02-03",-16.42,-23.26,,,
"CA002202560","1996-02-04",-13.72,-27.04,,,
"CA002202560","1996-02-05",6.62,-16.24,,,
"CA002202560","1996-02-06",10.22,6.44,,,
"CA002202560","1996-02-07",10.04,6.44,,,
"CA002202560","1996-02-08",16.52,9.32,,,
"CA002202560","1996-02-10",7.88,-5.98,,,
"CA002202560","1996-02-11",23.36,0.50,,,
"CA002202560","1996-02-12",19.40,0.14,,,
"CA002202560","1996-02-13",6.62,-8.14,,,
"CA002202560","1996-02-14",-6.34,,,,
"CA002202560","1996-02-16",-0.76,-15.16,,,
"CA002202560","1996-02-17",-2.02,-14.80,,,
"CA002202560","1996-02-18",3.56,-15.16,,,
"CA002202560","1996-02-19",7.70,-20.20,,,
"CA002202560","1996-02-20",9.68,-5.26,,,
"CA002202560","1996-02-21",10.40,-6.88,,,
"CA002202560","1996-02-22",-5.62,-22.00,,,
"CA002202560","1996-02-23",-12.64,,,,
"CA002202560","1996-02-24",-11.02,-30.10,,,
"CA002202560","1996-02-25",-17.50,-30.46,,,
"CA002202560","1996-02-26",-1.48,-19.48,,,
"CA002202560","1996-02-27",3.20,-13.18,,,
"CA002202560","1996-02-29",17.78,-5.26,,,
"CA002202560","1996-03-01",1.04,,,,
"CA002202560","1996-03-02",1.04,-11.56,,,
"CA002202560","1996-03-03",-6.16,-20.74,,,
"CA002202560","1996-03-05",-6.34,-22.72,,,
"CA002202560","1996-03-06",-7.42,-26.14,,,
"CA002202560","1996-03-09",8.96,-10.84,,,
"CA002202560","1996-03-10",18.14,0.32,,,
"CA002202560","1996-03-11",13.64,5.00,,,
"CA002202560","1996-03-12",5.00,-12.82,,,
"CA002202560","1996-03-13",7.34,-22.36,,,
"CA002202560","1996-03-14",8.06,-7.06,,,
"CA002202560","1996-03-15",10.76,-11.38,,,
"CA002202560","1996-03-16",22.46,-4.54,,,
"CA002202560","1996-03-17",15.44,-13.18,,,
"CA002202560","1996-03-19",16.34,7.88,,,
"CA002202560","1996-03-20",14.36,-14.44,,,
"CA002202560","1996-03-25",4.46,-12.64,,,
"CA002202560","1996-03-28",20.12,6.62,,,
"CA002202560","1996-03-29",8.06,-10.30,,,
"CA002202560","1996-04-02",13.46,-4.54,,,
"CA002202560","1996-04-03",15.26,-5.08,,,
"CA002202560","1996-04-04",18.14,-16.42,,,
"CA002202560","1996-04-05",36.14,14.54,,,
"CA002202560","1996-04-06",44.96,21.38,,,
"CA002202560","1996-04-07",45.14,29.48,,,
"CA002202560","1996-04-08",37.04,21.38,,,
"CA002202560","1996-04-09",30.56,17.60,,,
"CA002202560","1996-04-10",17.60,4.46,,,
"CA002202560","1996-04-11",17.60,-0.04,,,
"CA002202560","1996-04-12",18.50,0.50,,,
"CA002202560","1996-04-13",23.00,-3.64,,,
"CA002202560","1996-04-14",20.30,4.46,,,
"CA002202560","1996-04-15",21.92,2.12,,,
"CA002202560","1996-04-16",17.78,5.18,,,
"CA002202560","1996-04-17",15.08,0.14,,,
"CA002202560","1996-04-18",21.38,5.90,,,
"CA002202560","1996-04-19",28.58,15.98,,,
"CA002202560","1996-04-20",19.94,5.54,,,
"CA002202560","1996-04-21",15.26,-2.02,,,
"CA002202560","1996-04-22",21.02,-3.28,,,
"CA002202560","1996-04-23",32.18,11.66,,,
"CA002202560","1996-04-24",37.76,19.40,,,
"CA002202560","1996-04-25",37.40,25.34,,,
"CA002202560","1996-04-26",37.94,24.80,,,
"CA002202560","1996-04-27",40.82,32.90,,,
"CA002202560","1996-04-28",43.34,31.64,,,
"CA002202560","1996-04-29",37.22,29.30,,,
"CA002202560","1996-04-30",44.06,27.50,,,
"CA002202560","1996-05-01",46.04,26.96,,,
"CA002202560","1996-05-02",33.80,24.98,,,
"CA002202560","1996-05-03",27.50,19.58,,,
"CA002202560","1996-05-04",34.16,19.04,,,
"CA002202560","1996-05-05",20.12,13.46,,,
"CA002202560","1996-05-06",25.34,9.14,,,
"CA002202560","1996-05-07",25.52,7.34,,,
"CA002202560","1996-05-08",28.04,12.02,,,
"CA002202560","1996-05-09",26.60,9.14,,,
"CA002202560","1996-05-10",34.16,10.94,,,
"CA002202560","1996-05-11",42.26,17.96,,,
"CA002202560","1996-05-12",36.50,28.22,,,
"CA002202560","1996-05-15",38.84,19.04,,,
"CA002202560","1996-05-16",35.60,23.18,,,
"CA002202560","1996-05-17",44.96,31.64,,,
"CA002202560","1996-05-18",42.80,32.36,,,
"CA002202560","1996-05-19",39.02,34.16,,,
"CA002202560","1996-05-20",41.18,34.16,,,
"CA002202560","1996-05-21",40.82,32.72,,,
"CA002202560","1996-05-22",42.26,33.08,,,
"CA002202560","1996-05-23",56.12,34.34,,,
"CA002202560","1996-05-24",51.80,32.72,,,
"CA002202560","1996-05-25",48.56,37.04,,,
"CA002202560","1996-05-26",50.36,37.58,,,
"CA002202560","1996-05-27",43.70,35.24,,,
"CA002202560","1996-05-28",44.24,33.80,,,
"CA002202560","1996-05-29",55.04,35.42,,,
"CA002202560","1996-05-30",55.58,35.42,,,
"CA002202560","1996-05-31",53.96,30.92,,,
"CA002202560","1996-06-01",55.94,36.14,,,
"CA002202560","1996-06-02",51.98,36.14,,,
"CA002202560","1996-06-03",50.72,36.68,,,
"CA002202560","1996-06-04",49.64,32.72,,,
"CA002202560","1996-06-05",48.92,30.20,,,
"CA002202560","1996-06-06",45.32,34.52,,,
"CA002202560","1996-06-08",51.08,33.44,,,
"CA002202560","1996-06-09",60.26,35.60,,,
"CA002202560","1996-06-10",45.68,37.40,,,
"CA002202560","1996-06-11",58.64,37.22,,,
"CA002202560","1996-06-12",47.30,37.94,,,
"CA002202560","1996-06-13",67.28,37.58,,,
"CA002202560","1996-06-14",50.00,38.48,,,
"CA002202560","1996-06-15",48.02,38.66,,,
"CA002202560","1996-06-16",49.64,37.22,,,